KE5JJC Weather Reports


time (UTC)temp
F
wind
direction
speed
knots
gust
knots
rain 1hr
in
rain 24hr
in
rain mn
in
humidity
%
barometer
mb
20260903041552 53 198 4.3 8.7 0.00 0.08 0.00 80 1005.1
20260903040042 54 149 5.2 12.2 0.00 0.08 0.00 77 1004.9
20260903034547 56 217 3.5 7.8 0.00 0.08 0.00 73 1004.7
20260903033038 57 217 3.5 13.0 0.00 0.08 0.00 69 1004.4
20260903031519 59 219 4.3 11.3 0.00 0.08 0.00 64 1004.1
20260903030005 60 202 3.5 9.6 0.00 0.08 0.08 60 1003.8
20260903024600 61 132 1.7 12.2 0.00 0.08 0.08 57 1003.7
20260903024502 61 165 0.0 7.0 0.00 0.08 0.08 59 1003.5
20260903023048 61 181 0.0 5.2 0.00 0.08 0.08 58 1003.3
20260903021545 61 84 0.0 4.3 0.00 0.08 0.08 56 1003.2
20260903020038 62 223 0.0 3.5 0.00 0.08 0.08 55 1003.2
20260903014544 62 71 0.0 4.3 0.00 0.08 0.08 56 1003.1
20260903013031 62 105 0.0 5.2 0.00 0.08 0.08 54 1003.1
20260903011516 63 80 0.0 6.1 0.00 0.08 0.08 53 1003.1
20260903010101 63 219 0.0 7.0 0.00 0.08 0.08 52 1003.1
20260903004556 63 83 0.9 7.8 0.00 0.08 0.08 51 1003.1
20260903003050 63 76 0.0 3.5 0.00 0.08 0.08 54 1003.3
20260903001548 64 34 0.0 3.5 0.00 0.08 0.08 55 1003.2
20260903000016 63 71 0.9 6.1 0.00 0.08 0.08 54 1003.3
20260902234513 63 61 0.0 4.3 0.00 0.08 0.08 55 1003.3
20260902233010 63 92 0.0 5.2 0.00 0.08 0.08 59 1003.4
20260902231512 64 196 0.9 6.1 0.00 0.08 0.08 56 1003.4
20260902230047 63 130 1.7 10.4 0.00 0.08 0.08 56 1003.5
20260902224546 64 126 5.2 12.2 0.01 0.08 0.08 56 1003.5
20260902223037 63 56 0.9 6.1 0.01 0.08 0.08 78 1003.5
20260902221526 60 49 2.6 7.0 0.02 0.08 0.08 79 1003.6
20260902220008 58 196 0.0 1.7 0.08 0.08 0.08 91 1003.6
20260902214506 57 284 0.0 0.0 0.07 0.07 0.07 91 1003.8
20260902213102 57 284 0.0 0.0 0.07 0.07 0.07 90 1003.9
20260902211549 59 284 0.0 1.7 0.06 0.06 0.06 81 1003.7
20260902210030 63 24 0.0 3.5 0.00 0.00 0.00 62 1003.5
20260902204522 65 79 0.0 3.5 0.00 0.00 0.00 60 1003.5
20260902203022 66 297 0.0 3.5 0.00 0.00 0.00 59 1003.2
20260902201518 66 32 0.0 3.5 0.00 0.00 0.00 60 1003.2
20260902200007 68 43 0.9 5.2 0.00 0.00 0.00 55 1003.2
20260902194504 66 56 1.7 4.3 0.00 0.00 0.00 61 1003.5
20260902193100 67 71 0.9 4.3 0.00 0.00 0.00 59 1003.6
20260902191557 65 342 0.9 6.1 0.00 0.00 0.00 61 1003.6
20260902190034 64 108 0.0 3.5 0.00 0.00 0.00 64 1003.8
20260902184536 63 44 0.9 4.3 0.00 0.00 0.00 65 1003.7
20260902183012 62 77 0.9 2.6 0.00 0.00 0.00 63 1003.8
20260902181550 63 86 0.0 4.3 0.00 0.00 0.00 64 1003.8
20260902180019 63 36 0.0 2.6 0.00 0.00 0.00 62 1003.9
20260902174520 62 81 0.9 4.3 0.00 0.00 0.00 64 1003.9
20260902173016 60 78 0.0 3.5 0.00 0.00 0.00 68 1004.1
20260902171508 60 84 0.0 1.7 0.00 0.00 0.00 67 1004.0
20260902170047 60 80 0.0 3.5 0.00 0.00 0.00 68 1004.0
20260902164522 60 78 0.0 3.5 0.00 0.00 0.00 68 1004.0
20260902163015 59 10 0.0 3.5 0.00 0.00 0.00 70 1004.0
20260902161514 56 90 0.0 1.7 0.00 0.00 0.00 76 1004.2
20260902160004 56 67 0.0 3.5 0.00 0.00 0.00 77 1004.2
20260902154512 55 51 0.0 1.7 0.00 0.00 0.00 79 1003.7
20260902153023 53 349 0.0 0.0 0.00 0.00 0.00 82 1004.0
20260902151519 53 67 0.0 0.0 0.00 0.00 0.00 83 1004.1
20260902150059 52 58 0.9 1.7 0.00 0.00 0.00 85 1003.9
20260902150001 52 39 0.0 1.7 0.00 0.00 0.00 85 1003.8
20260902144552 0 0.0 0.0 0.00 0.00 0.00 1003.8
20260902141540 0 0.0 0.0 0.00 0.00 0.00 1003.3
20260902140011 0 0.0 0.0 0.00 0.00 0.00 1003.5
20260902134531 0 0.0 0.0 0.00 0.00 0.00 1003.4
20260902133023 0 0.0 0.0 0.00 0.00 0.00 1002.8
20260902131533 0 0.0 0.0 0.00 0.00 0.00 1002.9
20260902130012 0 0.0 0.0 0.00 0.00 0.00 1003.0
20260902124521 0 0.0 0.0 0.00 0.00 0.00 1003.3
20260902123106 0 0.0 0.0 0.00 0.00 0.00 1003.4
20260902120112 0 0.0 0.0 0.00 0.00 0.00 1003.4
20260902120007 0 0.0 0.0 0.00 0.00 0.00 1003.4
20260902114530 0 0.0 0.0 0.00 0.00 0.00 1003.6
20260902113053 0 0.0 0.0 0.00 0.00 0.00 1003.6
20260902111541 0 0.0 0.0 0.00 0.00 0.00 1003.5
20260902110127 55 275 0.0 0.9 0.00 0.00 0.00 64 1002.9
20260902104525 56 266 0.0 0.0 0.00 0.00 0.00 64 1004.5
20260902103022 56 265 0.0 0.0 0.00 0.00 0.00 64 1004.0
20260902101514 56 262 0.0 0.0 0.00 0.00 0.00 62 1004.2
20260902100011 57 262 0.0 0.0 0.00 0.00 0.00 61 1004.2
20260902094506 57 262 0.0 0.0 0.00 0.00 0.00 60 1004.3
20260902093058 57 262 0.0 0.0 0.00 0.00 0.00 60 1004.4
20260902091554 58 262 0.0 0.0 0.00 0.00 0.00 58 1004.5
20260902090037 58 262 0.0 0.0 0.00 0.00 0.00 58 1004.6
20260902084539 58 262 0.0 0.0 0.00 0.00 0.00 58 1004.7
20260902083028 58 262 0.0 0.9 0.00 0.00 0.00 58 1004.6
20260902081531 58 261 0.0 0.0 0.00 0.00 0.00 58 1004.7
20260902080023 58 261 0.0 0.0 0.00 0.00 0.00 57 1004.9
20260902074518 59 261 0.0 0.0 0.00 0.00 0.00 56 1004.9
20260902073048 60 261 0.0 0.0 0.00 0.00 0.00 55 1004.7
20260902071550 60 261 0.0 0.9 0.00 0.00 0.00 54 1004.7
20260902070030 61 259 0.0 0.9 0.00 0.00 0.00 54 1004.8
20260902064521 62 48 0.0 0.0 0.00 0.00 0.00 52 1004.8
20260902063006 63 48 0.0 0.0 0.00 0.00 0.00 50 1004.6
20260902061508 64 210 0.0 4.3 0.00 0.00 0.00 50 1004.7
20260902060051 64 267 0.9 4.3 0.00 0.00 0.00 49 1004.7
20260902054550 64 149 0.0 4.3 0.00 0.00 0.00 48 1004.7
20260902053036 64 270 0.0 3.5 0.00 0.00 0.00 48 1004.7
20260902051543 64 86 0.0 3.5 0.00 0.00 0.00 48 1004.7
20260902050047 65 165 0.0 0.9 0.00 0.00 0.00 47 1004.6
20260902044514 64 252 0.0 1.7 0.00 0.00 0.00 47 1004.5
20260902043025 66 274 0.0 1.7 0.00 0.00 0.00 45 1004.6